This is the latest recevied weather packets stored in our database for station/object ac2ev. If no packets are shown the sender has not sent any weather packets the latest 10 day(s).
| Time | Temp. | Humidity | Pressure | Rain* | Wind** | Luminosity | Snow |
|---|---|---|---|---|---|---|---|
| 1788206283 | 20.56° C | 89% | 1015.9 hPa | 2.79 mm | - | - | - |
| 1788205983 | 20.56° C | 89% | 1015.9 hPa | 2.79 mm | - | - | - |
| 1788205682 | 20.56° C | 89% | 1016 hPa | 2.54 mm | - | - | - |
| 1788205383 | 20.56° C | 89% | 1016.2 hPa | 2.54 mm | - | - | - |
| 1788205082 | 20.56° C | 89% | 1016.2 hPa | 2.29 mm | - | - | - |
| 1788204782 | 20.56° C | 89% | 1016.3 hPa | 2.29 mm | - | - | - |
| 1788204483 | 20.56° C | 89% | 1016.4 hPa | 2.03 mm | - | - | - |
| 1788204182 | 20.56° C | 90% | 1016.4 hPa | 1.52 mm | - | - | - |
| 1788203973 | 20.56° C | 89% | 1016.4 hPa | 1.27 mm | - | - | - |
| 1788203582 | 20.56° C | 89% | 1016.5 hPa | 1.52 mm | - | - | - |
| 1788203282 | 20.56° C | 89% | 1016.5 hPa | 2.29 mm | - | - | - |
| 1788202982 | 20.56° C | 89% | 1016.6 hPa | 3.3 mm | - | - | - |
| 1788202683 | 20.56° C | 89% | 1016.6 hPa | 4.83 mm | - | - | - |
| 1788202382 | 20.56° C | 89% | 1016.6 hPa | 5.84 mm | - | - | - |
| 1788202082 | 20.56° C | 90% | 1016.7 hPa | 6.35 mm | - | - | - |
| 1788201783 | 20.56° C | 90% | 1016.7 hPa | 6.6 mm | - | - | - |
| 1788201482 | 20.56° C | 90% | 1016.7 hPa | 6.86 mm | - | - | - |
| 1788201182 | 20.56° C | 89% | 1016.7 hPa | 7.37 mm | - | - | - |
| 1788200883 | 20.56° C | 89% | 1016.7 hPa | 8.89 mm | - | - | - |
| 1788200582 | 20.56° C | 89% | 1016.6 hPa | 9.91 mm | - | - | - |
| 1788200283 | 20.56° C | 90% | 1016.5 hPa | 9.91 mm | - | - | - |
| 1788199982 | 20° C | 90% | 1016.6 hPa | 9.4 mm | - | - | - |
| 1788199683 | 20° C | 90% | 1016.7 hPa | 8.64 mm | - | - | - |
| 1788199383 | 20° C | 90% | 1016.7 hPa | 7.62 mm | - | - | - |
| 1788199082 | 20° C | 90% | 1017 hPa | 5.84 mm | - | - | - |
* Rain latest hour (hover to see other rain measurements)
** Current wind speed in m/s (hover to see current wind gust speed)